Location: Härggis
(46.9540°N, 8.4897°E)
Time: 21:11:30
(UTC+00:00)

SL-16 R/B - Pass Details

Date: 03 October 2022
Orbit: 985 x 1007 km, 99.6° (Epoch: 05 December)

Event Time Altitude Azimuth Distance (km) Brightness Sun altitude
Exits shadow 00:48:16 24° 3° (N) 1,956 4.4 -42.5°
Drops below altitude 10° 00:50:38 10° 353° (N) 2,777 5.3 -42.3°
Sets 00:53:11 0° 349° (N) 3,734 6.0 -42.0°
